Regional Weather Roundup
Issued by NWS Jackson, KY

Home | Current Version | Previous Version | Text Only | Print | Product List | Glossary On
Versions: 1 2 3 4 5 6 7 8 9 10 11 12 13 14 15 16 17 18 19 20 21 22 23 24 25 26 27 28 29 30 31 32 33 34 35 36 37 38 39 40 41 42 43 44 45 46 47 48 49 50
242
ASUS43 KJKL 170510
RWRJKL

EAST KENTUCKY HOURLY WEATHER ROUNDUP
NATIONAL WEATHER SERVICE JACKSON KY
1200 AM EST TUE JAN 17 2017

NOTE: "FAIR" INDICATES FEW OR NO CLOUDS BELOW 12,000 FEET WITH
NO SIGNIFICANT WEATHER AND/OR OBSTRUCTIONS TO VISIBILITY.

* THESE REPORTS ARE NOT UNDER NWS QUALITY CONTROL AND MAY NOT
  REPORT WEATHER SUCH AS PRECIPITATION AND FOG.

KYZ079-080-083-085-087-088-110-112-115-119-120-170600
...EASTERN KENTUCKY...

CITY           SKY/WX    TMP DP  RH WIND       PRES   REMARKS
JACKSON        CLOUDY    58  49  72 SW3       30.11F
LONDON         CLOUDY    59  51  75 S8        30.12F
SOMERSET*      MOCLDY    59  52  77 S5        30.12S
MONTICELLO*    CLOUDY    62  53  72 SE8       30.11F
WILLIAMSBURG*  CLOUDY    57  55  94 SE6       30.13S
MIDDLESBORO*   MOCLDY    59  53  79 S8        30.16F
HARLAN APT*    CLOUDY    59  48  67 NE3       30.16F
PIKE CO APT*   CLOUDY    59  49  70 S7        30.13F
MOREHEAD APT*  CLOUDY    55  52  88 S5        30.10F
ASHLAND*       CLOUDY    48  46  93 CALM      30.09F
$$

KYZ035-036-041-042-044-050-067-078-099-170600
...CENTRAL KENTUCKY...

CITY           SKY/WX    TMP DP  RH WIND       PRES   REMARKS
MT STERLING*   CLOUDY    59  52  77 S9        30.08F
FLEMING/MASON* CLOUDY    56  52  87 S9        30.08F
DANVILLE*      RAIN      59  52  77 S9        30.08S
LEXINGTON      CLOUDY    59  52  77 S10       30.06F
FRANKFORT      LGT RAIN  59  52  77 S7        30.04S
LOUISVILLE     LGT RAIN  56  53  90 CALM      30.03F FOG
LEBANON*         N/A     61  54  77 S16       30.06R
GLASGOW*       LGT RAIN  59  54  82 S9        30.06R
BOWLING GREEN  LGT RAIN  60  56  86 S15       30.03F
$$

KYZ091>093-OHZ055-061-077-WVZ005-015-034-035-042-170600
...SOUTHERN OHIO/WEST VIRGINIA...

CITY           SKY/WX    TMP DP  RH WIND       PRES   REMARKS
COVINGTON      LGT RAIN  54  53  97 S9        30.03F
COLUMBUS       LGT RAIN  47  47 100 SE5       30.08F
DAYTON         LGT RAIN  48  48 100 SE10      30.03F VSB 1
WILMINGTON     CLOUDY    49  48  97 SE7       30.04F FOG
HUNTINGTON     CLOUDY    50  48  93 CALM      30.10F FOG
CHARLESTON     CLOUDY    50  49  96 E3        30.12F FOG
BECKLEY        CLOUDY    51  46  83 SE7       30.17F
BLUEFIELD      CLOUDY    48  44  86 CALM      30.20F
LOGAN CO APT*  MOCLDY    59  50  72 S7        30.14F
$$

VAZ002-007-008-TNZ017-027-036-066-071-170600
...SOUTHWEST VIRGINIA/EAST TENNESSEE...

CITY           SKY/WX    TMP DP  RH WIND       PRES   REMARKS
WISE*          CLOUDY    55  46  71 S10       30.19F
JONESVILLE*    CLOUDY    54  50  87 CALM      30.19S
ABINGDON*      MOCLDY    52  49  90 CALM      30.20F
BRISTOL        CLOUDY    53  47  79 CALM      30.18F
MORRISTOWN*    MOCLDY    55  54  94 CALM      30.16S
SEVIERVILLE*   CLEAR     48  48 100 CALM      30.16S
KNOXVILLE      CLOUDY    55  53  93 CALM      30.15F
LAFOLLETTE*    MOCLDY    54  52  94 N6        30.18S
OAK RIDGE      PTCLDY    54  51  90 CALM      30.18S
CROSSVILLE     PTCLDY    58  52  80 S8G18     30.15F
NASHVILLE      CLOUDY    63  54  72 S14       30.04F
$$

...KEY TO REMARKS...
VSB - VISIBILITY IN MILES
WCI - WIND CHILL INDEX
HX  - HEAT INDEX

$$




USA.gov is the U.S. government's official web portal to all federal, state and local government web resources and services.